[[{"header":{"parameterUnit":"m.s-1","parameterCategory":1,"la1":30.2991,"la2":30.254,"lo1":-89.0895,"lo2":-89.0444,"dx":0.0017,"dy":0.0017,"nx":28,"ny":28,"refTime":"2022-11-05T15:00:00:Z","depth":0,"parameterNumber":2,"parameterNumberName":"U-component_of_WINDS"},"data":[0,0,0,0,0,0,0,0,0,0,0,0,0,0,0,0,0,0,0,0,0,0,0,0,0,0,0,0,0,0,0,0,0,0,0,0,0,0,0,0,0,0,0,0,0,0,0,0,0,0,0,0,0,0,0,0,0,0,-2.7329,-2.7331,0,-2.7556,-2.7558,-2.7561,-2.7669,-2.7669,-2.7669,-2.7669,-2.7899,-2.7905,-2.7911,0,0,0,0,0,0,0,0,0,0,0,0,0,-2.6989,-2.6994,-2.7329,-2.7332,-2.7335,-2.7555,-2.7558,-2.7561,-2.7669,-2.7669,-2.7669,-2.7669,-2.7897,-2.7904,-2.7912,0,0,0,0,0,0,0,0,0,0,0,0,0,-2.7168,-2.6996,-2.7328,-2.7415,-2.7425,-2.7555,-2.7558,-2.7562,-2.7669,-2.7669,-2.7669,-2.7669,-2.7895,-2.7904,-2.7913,-2.7973,0,0,-2.7941,-2.7945,0,0,0,0,0,0,0,0,-2.7157,-2.718,-2.7399,-2.7409,-2.7421,-2.7584,-2.7523,-2.77,-2.7669,-2.7576,-2.7669,-2.7669,-2.7794,-2.7812,-2.7854,-2.7984,-2.7993,-2.7942,-2.7948,-2.7952,-2.7954,0,0,0,0,0,0,0,-2.7145,-2.7171,-2.7419,-2.7402,-2.7415,-2.7442,-2.7468,-2.7557,-2.7683,-2.7584,-2.7593,-2.7618,-2.78,-2.7845,-2.7861,-2.7997,-2.7942,-2.795,-2.7956,-2.7959,-2.8188,-2.8189,0,0,0,0,0,0,-2.7119,-2.716,-2.7411,-2.7425,-2.7286,-2.7448,-2.7477,-2.7532,-2.7683,-2.7705,-2.7618,-2.7622,-2.7829,-2.785,-2.7869,-2.7951,-2.7952,-2.796,-2.7966,-2.8188,-2.8189,-2.8189,0,0,0,0,0,0,-2.7111,-2.714,-2.7402,-2.7295,-2.7331,-2.7454,-2.7515,-2.7536,-2.7582,-2.7708,-2.7731,-2.7641,-2.783,-2.7856,-2.7947,-2.796,-2.7965,-2.7973,-2.8187,-2.8188,-2.8189,-2.8113,0,0,0,0,0,0,-2.7101,-2.7137,-2.7161,-2.7295,-2.7336,-2.7476,-2.7516,-2.7541,-2.7598,-2.7605,-2.7736,-2.7757,-2.7832,-2.7932,-2.7956,-2.7973,-2.798,-2.8187,-2.8188,-2.8189,-2.8115,-2.8111,-2.8108,0,0,0,0,0,-2.7088,-2.713,-2.7161,-2.7191,-2.7369,-2.7477,-2.75,-2.7586,-2.7598,-2.7624,-2.7705,-2.7753,-2.7955,-2.7941,-2.7968,-2.7988,-2.8186,-2.8187,-2.8189,-2.8117,-2.8112,-2.8108,0,0,0,0,0,0,-2.6993,-2.7149,-2.7186,-2.7272,-2.736,-2.7495,-2.7529,-2.7578,-2.7664,-2.7667,-2.777,-2.7798,-2.788,-2.7943,-2.7925,-2.8055,-2.8075,-2.8082,-2.8011,-2.8008,-2.8004,-2.7987,-2.7988,0,0,0,0,0,-2.6982,-2.7057,-2.7189,-2.7252,-2.7295,-2.7404,-2.7454,-2.7513,-2.7608,-2.7646,-2.7734,-2.7824,-2.7908,-2.7961,-2.8046,-2.8125,-2.8155,-2.8152,-2.8148,-2.8145,-2.815,-2.8198,-2.8198,-2.8193,-2.8193,-2.8193,0,0,-2.696,-2.7055,-2.7096,-2.7236,-2.7311,-2.7386,-2.7435,-2.7512,-2.7569,-2.7658,-2.7749,-2.7817,-2.7924,-2.801,-2.8052,-2.8065,-2.8158,-2.8146,-2.8143,-2.815,-2.8199,-2.8199,-2.8199,-2.8194,-2.8193,-2.8193,0,0,-2.6959,-2.7038,-2.71,-2.7175,-2.7289,-2.7361,-2.7376,-2.7504,-2.7552,-2.7646,-2.7714,-2.7783,-2.7925,-2.8,-2.8056,-2.8084,-2.8132,-2.8109,-2.8091,-2.8136,-2.8136,-2.8137,-2.8148,-2.8151,-2.8113,-2.8113,-2.8113,0,-2.6918,-2.7034,-2.7125,-2.72,-2.726,-2.7344,-2.7408,-2.7476,-2.7611,-2.765,-2.7663,-2.7845,-2.7923,-2.8028,-2.8035,-2.8077,-2.8098,-2.8095,-2.8129,-2.8131,-2.8133,-2.8145,-2.8149,-2.8109,-2.811,-2.811,-2.811,0,-2.6978,-2.7058,-2.7094,-2.7224,-2.7288,-2.7356,-2.7457,-2.7511,-2.7564,-2.7635,-2.773,-2.7827,-2.7933,-2.7962,-2.8014,-2.8075,-2.808,-2.8109,-2.8132,-2.8129,-2.8141,-2.8146,-2.8104,-2.8106,-2.8107,-2.8107,0,0,-2.6923,-2.7103,-2.7115,-2.7175,-2.7307,-2.7371,-2.7443,-2.7548,-2.7592,-2.7683,-2.7746,-2.7865,-2.7894,-2.7958,-2.8019,-2.8059,-2.8077,-2.8085,-2.8089,-2.808,-2.8151,-2.8128,-2.8131,-2.8109,-2.811,-2.8111,-2.8142,0,-2.6941,-2.7075,-2.716,-2.726,-2.7336,-2.7418,-2.7481,-2.7569,-2.7637,-2.7711,-2.7787,-2.787,-2.7901,-2.7941,-2.7984,-2.8065,-2.8092,-2.8064,-2.817,-2.8172,-2.8141,-2.8138,-2.8114,-2.8138,-2.8147,-2.8148,-2.8149,0,-2.698,-2.7069,-2.7177,-2.7302,-2.7337,-2.7393,-2.7496,-2.7565,-2.7667,-2.7714,-2.7786,-2.7848,-2.7928,-2.7943,-2.8056,-2.8035,-2.8083,-2.813,-2.8133,-2.8146,-2.816,-2.8152,-2.8148,-2.8152,-2.8157,-2.8157,-2.8156,0,-2.693,-2.7077,-2.7161,-2.721,-2.7358,-2.7395,-2.7459,-2.756,-2.7618,-2.7708,-2.7747,-2.7844,-2.7898,-2.7972,-2.8059,-2.8062,-2.8163,-2.8185,-2.8205,-2.8203,-2.8223,-2.822,-2.8227,-2.8252,-2.8252,-2.8252,-2.8252,0,-2.6941,-2.7004,-2.7141,-2.7193,-2.7266,-2.7363,-2.7433,-2.7503,-2.7593,-2.766,-2.7736,-2.7797,-2.7908,-2.7983,-2.8052,-2.8135,-2.8158,-2.8199,-2.8216,-2.8192,-2.8187,-2.8226,-2.8226,-2.8253,-2.8253,-2.8253,-2.8253,0,-2.6898,-2.6992,-2.709,-2.7222,-2.7257,-2.7305,-2.7418,-2.7472,-2.7545,-2.7629,-2.7654,-2.7768,-2.786,-2.7955,-2.8079,-2.8125,-2.8207,-2.823,-2.8172,-2.8182,-2.8197,-2.8195,-2.8229,-2.8239,-2.8256,-2.8256,-2.8255,0,-2.69,-2.695,-2.7088,-2.7139,-2.7201,-2.7281,-2.7341,-2.7438,-2.7497,-2.7618,-2.7657,-2.7755,-2.7838,-2.7982,-2.8076,-2.8172,-2.8199,-2.8205,-2.8214,-2.8189,-2.82,-2.8196,-2.8203,-2.8201,-2.82,-2.82,-2.8199,0,-2.6892,-2.6937,-2.702,-2.712,-2.719,-2.7273,-2.7359,-2.7396,-2.751,-2.7573,-2.7668,-2.7733,-2.7861,-2.7958,-2.8065,-2.813,-2.8184,-2.8196,-2.8205,-2.8182,-2.8146,-2.8167,-2.8163,-2.8194,-2.8195,-2.8195,-2.8195,-2.8196,-2.6873,-2.6922,-2.7027,-2.7118,-2.7193,-2.7272,-2.7329,-2.741,-2.7491,-2.7603,-2.7656,-2.7752,-2.7854,-2.8004,-2.8068,-2.8145,-2.8159,-2.8173,-2.8177,-2.8179,-2.8174,-2.8134,-2.8164,-2.8165,-2.8165,-2.8165,-2.8165,0,-2.687,-2.6942,-2.7025,-2.7143,-2.7215,-2.726,-2.7358,-2.7414,-2.7498,-2.7589,-2.767,-2.778,-2.7875,-2.7977,-2.8077,-2.8119,-2.8146,-2.8142,-2.814,-2.8155,-2.8154,-2.8136,-2.8119,-2.8119,-2.8119,-2.8119,-2.8119,-2.8119,-2.6878,-2.6964,-2.7021,-2.7145,-2.7217,-2.7312,-2.7364,-2.7438,-2.7511,-2.7631,-2.771,-2.7776,-2.7872,-2.798,-2.8069,-2.8097,-2.813,-2.8119,-2.8154,-2.8151,-2.8155,-2.8158,-2.8142,-2.8126,-2.8126,-2.8149,-2.8149,-2.8149]},{"header":{"parameterUnit":"m.s-1","parameterCategory":1,"la1":30.2991,"la2":30.254,"lo1":-89.0895,"lo2":-89.0444,"dx":0.0017,"dy":0.0017,"nx":28,"ny":28,"refTime":"2022-11-05T15:00:00:Z","depth":0,"parameterNumber":3,"parameterNumberName":"V-component_of_WINDS"},"data":[0,0,0,0,0,0,0,0,0,0,0,0,0,0,0,0,0,0,0,0,0,0,0,0,0,0,0,0,0,0,0,0,0,0,0,0,0,0,0,0,0,0,0,0,0,0,0,0,0,0,0,0,0,0,0,0,0,0,5.908,5.9081,0,5.9167,5.9168,5.9169,5.915,5.9148,5.9146,5.9145,5.9232,5.9236,5.924,0,0,0,0,0,0,0,0,0,0,0,0,0,5.8896,5.8899,5.908,5.9081,5.9082,5.9167,5.9168,5.9169,5.915,5.9148,5.9146,5.9144,5.9231,5.9235,5.924,0,0,0,0,0,0,0,0,0,0,0,0,0,5.8978,5.89,5.9079,5.9083,5.9084,5.9166,5.9168,5.9169,5.915,5.9148,5.9146,5.9143,5.9229,5.9235,5.9241,5.9325,0,0,5.9258,5.9261,0,0,0,0,0,0,0,0,5.8974,5.8985,5.9081,5.9082,5.9084,5.9145,5.9135,5.9221,5.9151,5.9125,5.9145,5.9142,5.9205,5.9212,5.9234,5.9329,5.9333,5.9259,5.9262,5.9265,5.9266,0,0,0,0,0,0,0,5.8968,5.8981,5.9114,5.9082,5.9084,5.9079,5.9088,5.9151,5.9177,5.9127,5.9126,5.9137,5.9205,5.9229,5.9236,5.9334,5.9258,5.9264,5.9267,5.9269,5.9504,5.9507,0,0,0,0,0,0,5.8961,5.8977,5.9111,5.9117,5.9022,5.9085,5.9095,5.9128,5.9177,5.9182,5.9139,5.9135,5.922,5.9229,5.9239,5.9342,5.9264,5.927,5.9273,5.9501,5.9505,5.9508,0,0,0,0,0,0,5.8957,5.8973,5.9108,5.9046,5.9063,5.909,5.9128,5.9131,5.9154,5.9186,5.919,5.9158,5.9218,5.9231,5.9304,5.9345,5.9272,5.9278,5.9498,5.9502,5.9506,5.9549,0,0,0,0,0,0,5.8952,5.8972,5.9005,5.9047,5.9066,5.9172,5.913,5.9134,5.9164,5.9161,5.9205,5.921,5.9217,5.9296,5.931,5.9352,5.9282,5.9494,5.95,5.9505,5.9544,5.9554,5.9563,0,0,0,0,0,5.8946,5.9012,5.9006,5.9023,5.9108,5.9174,5.9185,5.9194,5.9168,5.9201,5.9221,5.9208,5.9338,5.9303,5.9319,5.9363,5.9492,5.9498,5.9504,5.954,5.9552,5.9563,0,0,0,0,0,0,5.8973,5.9018,5.9012,5.9094,5.9131,5.9171,5.9213,5.9206,5.925,5.9245,5.9253,5.9263,5.9338,5.9358,5.9318,5.9448,5.9411,5.9421,5.9433,5.9445,5.9454,5.9448,5.9287,0,0,0,0,0,5.8988,5.9039,5.9076,5.9145,5.9164,5.9185,5.9214,5.9218,5.9256,5.9271,5.9296,5.9333,5.9382,5.9414,5.9461,5.9547,5.9557,5.9585,5.9594,5.9602,5.961,5.9659,5.9672,5.9528,5.9528,5.9528,0,0,5.9021,5.9052,5.9083,5.9151,5.918,5.9232,5.9198,5.9254,5.9294,5.9279,5.9351,5.9371,5.9412,5.9492,5.9529,5.9511,5.9652,5.961,5.9615,5.962,5.9667,5.968,5.9692,5.9532,5.9532,5.9531,0,0,5.9108,5.9136,5.9198,5.9228,5.9272,5.9286,5.9301,5.9342,5.9356,5.9428,5.9418,5.9464,5.9549,5.9579,5.9606,5.9706,5.9696,5.9721,5.977,5.9817,5.9828,5.9838,5.9875,5.9889,5.9729,5.9729,5.9729,0,5.9143,5.9222,5.923,5.9288,5.9319,5.9309,5.9372,5.94,5.9457,5.9478,5.9458,5.9565,5.9592,5.968,5.9705,5.9726,5.9744,5.9716,5.9826,5.9836,5.9846,5.9881,5.9895,5.9732,5.9731,5.9731,5.9731,0,5.9264,5.9319,5.9363,5.942,5.9455,5.9515,5.9533,5.9568,5.9568,5.9584,5.9659,5.9691,5.9745,5.9766,5.9766,5.9855,5.9843,5.9824,5.9787,5.9862,5.9896,5.9909,5.9736,5.9735,5.9734,5.9733,0,0,5.937,5.9431,5.9448,5.9474,5.9523,5.9566,5.9625,5.9679,5.971,5.9749,5.98,5.9873,5.9856,5.9887,5.989,5.9931,6.0011,5.9908,5.9909,5.9927,6.0112,6.0127,6.0142,6.0004,6.0007,6.0009,6.0109,0,5.9462,5.9569,5.9579,5.9675,5.9726,5.9718,5.977,5.9806,5.9823,5.9869,5.9887,5.9939,5.9913,5.9931,5.9972,5.9993,6.0048,5.9985,6.0052,6.0055,6.0044,6.016,6.0175,6.0268,6.0122,6.0124,6.0126,0,5.9585,5.963,5.9731,5.9774,5.9796,5.9843,5.9894,5.9938,5.9979,5.9988,6.0023,6.0021,6.0083,6.0043,6.0129,6.0087,6.0114,6.0129,6.0133,6.014,6.0096,6.0172,6.0298,6.0312,6.0146,6.0145,6.0143,0,5.9654,5.974,5.9812,5.9835,5.9886,5.992,5.9943,5.9981,6.0013,6.0057,6.0078,6.0129,6.0157,6.0196,6.0209,6.0178,6.0295,6.0255,6.0305,6.0305,6.0331,6.0329,6.0464,6.0346,6.0346,6.0346,6.0346,0,5.9758,5.982,5.9845,5.9889,5.9959,5.997,6.0039,6.006,6.0094,6.0142,6.0137,6.0183,6.0196,6.0244,6.0254,6.0325,6.0337,6.0347,6.0349,6.0348,6.0347,6.0367,6.0362,6.035,6.0349,6.0348,6.0347,0,5.9848,5.9866,5.9945,5.9987,6.0,6.005,6.0086,6.0129,6.0146,6.0207,6.0222,6.0248,6.0304,6.0321,6.0388,6.0394,6.0478,6.0473,6.0465,6.0465,6.0515,6.051,6.0669,6.0691,6.0557,6.0558,6.0559,0,5.9913,5.9962,6.001,6.0043,6.0067,6.012,6.0153,6.0165,6.02,6.025,6.0288,6.0344,6.0389,6.048,6.0504,6.0556,6.0553,6.0605,6.0561,6.056,6.0556,6.0554,6.0559,6.0614,6.0616,6.0617,6.0618,0,6.0028,6.0035,6.0084,6.0137,6.0177,6.0219,6.0258,6.0285,6.0303,6.0343,6.0401,6.0436,6.0506,6.0562,6.0615,6.0638,6.0632,6.0631,6.0646,6.0646,6.064,6.0646,6.0489,6.0628,6.0627,6.0626,6.0626,6.0625,6.0109,6.0152,6.0194,6.0248,6.028,6.0318,6.0361,6.0383,6.0432,6.0491,6.0494,6.0558,6.0598,6.0668,6.0695,6.0744,6.0729,6.075,6.0755,6.076,6.0765,6.0631,6.0754,6.0753,6.0753,6.0753,6.0753,0,6.0225,6.0251,6.0302,6.0359,6.0402,6.0393,6.0437,6.0474,6.053,6.0568,6.0613,6.0681,6.0735,6.0765,6.0819,6.0853,6.0852,6.0867,6.0866,6.0872,6.0775,6.0758,6.0868,6.0868,6.0868,6.0868,6.0868,6.0868,6.0291,6.0364,6.0376,6.0465,6.0491,6.0554,6.0581,6.0616,6.0646,6.0722,6.0768,6.0787,6.0822,6.0879,6.0929,6.0936,6.0957,6.0975,6.098,6.089,6.0878,6.0867,6.0851,6.0979,6.0979,6.1073,6.1073,6.1074]}]]